Location: Bonny Doon Airfield
(37.0704°N, 122.1252°W)
Time: 10:16:29
(UTC-08:00)

BREEZE M DEB (TANK) - Visible Passes

Search period start: 04 December 2016 00:00
Search period end: 14 December 2016 00:00
Orbit: 314 x 13725 km, 49.6° (Epoch: 01 December)

Date Brightness Start Highest point End Pass type
(mag) Time Alt. Az. Time Alt. Az. Time Alt. Az.
04 Dec 8.0 02:53:57 64° WNW 03:08:01 74° NNW 05:21:16 10° E visible
05 Dec 8.2 00:20:26 61° ENE 00:20:26 61° ENE 01:52:10 10° ENE visible
05 Dec 8.4 04:37:45 32° WNW 05:41:41 73° NNE 07:24:36 10° ESE visible
05 Dec 8.9 21:46:55 20° ENE 21:46:55 20° ENE 22:13:50 10° NE visible
06 Dec 8.0 02:04:12 78° NW 02:06:53 79° NNW 04:18:04 10° E visible
06 Dec 8.8 06:22:07 10° WNW 08:10:14 86° SW 09:17:10 10° SSE visible
06 Dec 8.4 23:30:39 47° ENE 23:30:39 47° ENE 00:42:04 10° NE visible
07 Dec 8.2 03:47:56 45° WNW 04:26:36 71° N 06:27:35 10° ESE visible
07 Dec 9.0 20:57:04 11° ENE 20:57:04 11° ENE 21:01:02 10° ENE visible
08 Dec 8.1 01:14:21 79° NE 01:14:21 79° NE 03:11:37 10° ENE visible
08 Dec 8.6 05:31:39 19° WNW 07:05:16 85° NE 08:23:27 10° SE visible
08 Dec 8.6 22:40:45 35° ENE 22:40:45 35° ENE 23:32:17 10° NE visible
09 Dec 8.1 02:58:02 59° WNW 03:17:17 71° N 05:28:31 10° E visible
10 Dec 8.2 00:24:24 65° ENE 00:24:24 65° ENE 02:02:15 10° ENE visible
10 Dec 8.5 04:41:41 30° WNW 05:55:11 78° NE 07:28:41 10° SE visible
10 Dec 8.8 21:50:45 25° ENE 21:50:45 25° ENE 22:23:10 10° NE visible
11 Dec 8.1 02:08:02 72° NW 02:13:32 74° NNW 04:26:44 10° E visible
11 Dec 8.9 06:26:45 10° WNW 08:12:52 78° WSW 09:19:13 10° SSE visible
11 Dec 8.4 23:34:20 52° ENE 23:34:20 52° ENE 00:51:23 10° ENE visible
12 Dec 8.4 03:51:36 42° WNW 04:40:49 73° NNE 06:32:33 10° ESE visible
12 Dec 9.0 21:00:39 15° ENE 21:00:39 15° ENE 21:14:05 10° NE visible
13 Dec 8.2 01:17:55 77° N 01:17:55 77° N 03:21:35 10° E visible
13 Dec 8.7 05:35:10 17° WNW 07:10:51 88° SW 08:26:03 10° SSE visible
13 Dec 8.6 22:44:13 39° ENE 22:44:13 39° ENE 23:40:42 10° NE visible
